Weather History for Fort Smith, AR

Change the Weather History Date:

Thursday, March 7, 2013

  Actual Average Record
Temperature  
Mean Temperature 53 °F 50 °F  
Max Temperature 67 °F 62 °F 84 °F (2000)
Min Temperature 38 °F 39 °F 13 °F (1920)
Degree Days  
Heating Degree Days 12 15  
Month to date heating degree days 132 110  
Since 1 July heating degree days 2455 2783  
Cooling Degree Days 0 0  
Month to date cooling degree days 0 0  
Year to date cooling degree days 1 1  
Growing Degree Days 2 (Base 50)    
Moisture  
Dew Point 29 °F    
Average Humidity 45    
Maximum Humidity 70    
Minimum Humidity 20    
Precipitation  
Precipitation 0.00 in 0.13 in 0.76 in (1998)
Month to date precipitation 0.01 0.81  
Year to date precipitation 8.44 6.38  
Sea Level Pressure  
Sea Level Pressure 30.23 in    
Wind  
Wind Speed 8 mph (East)    
Max Wind Speed 16 mph    
Max Gust Speed 21 mph    
Visibility 9 miles    
Events      
T = Trace of Precipitation, MM = Missing Value Source: NWS Daily Summary

Daily Weather History Graph

Daily Weather History Graph

Search for Another Location

Airport:

Trip Planner

Search our weather history database for the weather conditions in past years. The results will help you decide how hot, cold, wet, or windy it might be!

Date:

Astronomy

Mar. 07, 2013 Rise Set
Actual Time 6:38 AM CST 6:18 PM CST
Civil Twilight 6:13 AM CST 6:43 PM CST
Nautical Twilight 5:44 AM CST 7:13 PM CST
Astronomical Twilight 5:14 AM CST 7:42 PM CST
Moon 3:31 AM CST (3/7) 2:14 PM CST (3/7)
Length of Visible Light 12h 30m
Length of Day
11h 39m
Waning Crescent, 20% of the Moon is Illuminated
Mar 7
Waning Crescent
Mar 11
New
Mar 19
First Quarter
Mar 27
Full
Apr 2
Last Quarter

Hourly Weather History & Observations

Time (CST) Temp. Windchill Dew Point Humidity Pressure Visibility Wind Dir Wind Speed Gust Speed Precip Events Conditions
12:53 AM 41.0 °F 38.0 °F 32.0 °F 70% 30.26 in 10.0 mi NE 4.6 mph - N/A   Clear
1:53 AM 41.0 °F 36.4 °F 30.9 °F 67% 30.27 in 10.0 mi NE 6.9 mph - N/A   Clear
2:53 AM 41.0 °F 36.4 °F 30.9 °F 67% 30.27 in 10.0 mi ENE 6.9 mph - N/A   Clear
3:53 AM 41.0 °F 36.4 °F 30.9 °F 67% 30.27 in 10.0 mi ENE 6.9 mph - N/A   Partly Cloudy
4:53 AM 42.1 °F 39.2 °F 30.9 °F 65% 30.28 in 10.0 mi East 4.6 mph - N/A   Clear
5:53 AM 39.9 °F 35.1 °F 28.9 °F 65% 30.29 in 10.0 mi East 6.9 mph - N/A   Clear
6:53 AM 37.9 °F 32.7 °F 28.9 °F 70% 30.30 in 10.0 mi East 6.9 mph - N/A   Clear
7:53 AM 42.1 °F 36.6 °F 30.0 °F 62% 30.30 in 10.0 mi East 9.2 mph - N/A   Clear
8:53 AM 46.9 °F - 28.9 °F 50% 30.31 in 10.0 mi ESE 10.4 mph - N/A   Clear
9:53 AM 52.0 °F - 27.0 °F 38% 30.30 in 10.0 mi East 12.7 mph - N/A   Clear
10:53 AM 55.9 °F - 26.1 °F 32% 30.30 in 10.0 mi ESE 9.2 mph - N/A   Clear
11:53 AM 57.9 °F - 26.1 °F 30% 30.28 in 10.0 mi ESE 10.4 mph - N/A   Clear
12:53 PM 61.0 °F - 25.0 °F 25% 30.25 in 10.0 mi Variable 6.9 mph - N/A   Clear
1:53 PM 64.0 °F - 26.1 °F 24% 30.21 in 10.0 mi ESE 11.5 mph - N/A   Clear
2:53 PM 64.9 °F - 24.1 °F 21% 30.19 in 10.0 mi ESE 10.4 mph 18.4 mph N/A   Clear
3:53 PM 66.0 °F - 26.1 °F 22% 30.16 in 10.0 mi ESE 11.5 mph - N/A   Clear
4:53 PM 66.0 °F - 25.0 °F 21% 30.15 in 10.0 mi ESE 8.1 mph - N/A   Clear
5:53 PM 64.0 °F - 27.0 °F 25% 30.15 in 10.0 mi SE 9.2 mph - N/A   Clear
6:53 PM 59.0 °F - 30.0 °F 33% 30.17 in 5.0 mi ESE 10.4 mph - N/A   Haze
7:09 PM 57.2 °F - 30.2 °F 36% 30.17 in 7.0 mi ESE 10.4 mph - N/A   Smoke
7:53 PM 55.9 °F - 30.0 °F 37% 30.18 in 7.0 mi ESE 8.1 mph - N/A   Smoke
8:53 PM 48.9 °F - 33.1 °F 54% 30.19 in 7.0 mi ENE 5.8 mph - N/A   Smoke
9:53 PM 48.0 °F - 34.0 °F 58% 30.20 in 6.0 mi ENE 6.9 mph - N/A   Haze
10:53 PM 46.0 °F 42.5 °F 34.0 °F 63% 30.21 in 10.0 mi ENE 6.9 mph - N/A   Smoke
11:53 PM 45.0 °F 41.2 °F 34.0 °F 65% 30.20 in 10.0 mi East 6.9 mph - N/A   Smoke